[[{"header":{"parameterUnit":"m.s-1","parameterCategory":1,"la1":30.2991,"la2":30.254,"lo1":-89.0895,"lo2":-89.0444,"dy":0.0017,"dx":0.0017,"nx":28,"ny":28,"refTime":"2024-07-14T21:00:00:Z","depth":0,"parameterNumber":2,"parameterNumberName":"U-component_of_WINDS"},"data":[0,0,0,0,0,0,0,0,0,0,0,0,0,0,0,0,0,0,0,0,0,0,0,0,0,0,0,0,0,0,0,0,0,0,0,0,0,0,0,0,0,0,0,0,0,0,0,0,0,0,0,0,0,0,0,0,0,0,4.5047,4.5048,0,4.5183,4.5184,4.5186,4.5129,4.5125,4.5122,4.5119,4.5257,4.5263,4.527,0,0,0,0,0,0,0,0,0,0,0,0,0,4.4735,4.4741,4.5046,4.5048,4.505,4.5183,4.5184,4.5186,4.5129,4.5125,4.5121,4.5117,4.5255,4.5263,4.5271,0,0,0,0,0,0,0,0,0,0,0,0,0,4.487,4.4743,4.5046,4.5037,4.5038,4.5182,4.5185,4.5187,4.513,4.5125,4.512,4.5116,4.5252,4.5262,4.5272,4.5432,0,0,4.5302,4.5307,0,0,0,0,0,0,0,0,4.4863,4.4882,4.5037,4.5038,4.5039,4.5134,4.5125,4.5269,4.5131,4.5095,4.5119,4.5113,4.522,4.5232,4.5268,4.5439,4.5444,4.5303,4.5309,4.5314,4.5317,0,0,0,0,0,0,0,4.4853,4.4876,4.51,4.5039,4.5041,4.5026,4.504,4.5152,4.5183,4.5098,4.5094,4.5111,4.5219,4.5259,4.5271,4.5446,4.5303,4.5312,4.5318,4.5322,4.5753,4.5758,0,0,0,0,0,0,4.4844,4.4868,4.5096,4.5104,4.4937,4.5036,4.5051,4.5108,4.5182,4.5188,4.5115,4.5108,4.5244,4.526,4.5276,4.5466,4.5314,4.5323,4.5329,4.5748,4.5754,4.576,0,0,0,0,0,0,4.4838,4.4865,4.509,4.4985,4.5013,4.5046,4.5111,4.5114,4.5153,4.5195,4.52,4.515,4.5241,4.5262,4.5393,4.547,4.5328,4.5337,4.5741,4.575,4.5757,4.5849,0,0,0,0,0,0,4.4829,4.4863,4.4925,4.4987,4.5019,4.5206,4.5116,4.512,4.5171,4.5162,4.5229,4.5235,4.5239,4.5379,4.5403,4.5481,4.5345,4.5734,4.5745,4.5754,4.5839,4.5859,4.5876,0,0,0,0,0,4.4818,4.4945,4.4928,4.4956,4.5097,4.5211,4.5229,4.5231,4.5177,4.5239,4.5266,4.5233,4.5459,4.5393,4.542,4.5502,4.5729,4.5742,4.5754,4.5831,4.5855,4.5876,0,0,0,0,0,0,4.489,4.4953,4.4935,4.5086,4.5144,4.5201,4.5278,4.5257,4.533,4.532,4.5319,4.5334,4.5469,4.55,4.5425,4.566,4.5586,4.5604,4.5635,4.5658,4.5677,4.5665,4.5353,0,0,0,0,0,4.4924,4.5012,4.5062,4.5191,4.5221,4.5245,4.5295,4.5292,4.5351,4.5375,4.5411,4.5469,4.5553,4.5608,4.5688,4.5845,4.5857,4.5915,4.5933,4.5948,4.5963,4.6045,4.6071,4.58,4.58,4.5799,0,0,4.4994,4.5039,4.5095,4.5207,4.5251,4.534,4.5266,4.5365,4.5431,4.539,4.5515,4.5545,4.5609,4.5754,4.5819,4.5783,4.6041,4.5964,4.5976,4.5982,4.606,4.6086,4.6109,4.5808,4.5806,4.5805,0,0,4.5166,4.5211,4.5322,4.5368,4.5436,4.5451,4.5478,4.5539,4.5557,4.5684,4.5654,4.5733,4.5878,4.5924,4.5967,4.6159,4.613,4.6185,4.6281,4.6361,4.6382,4.6401,4.6466,4.649,4.62,4.6201,4.6201,0,4.5244,4.5379,4.5381,4.5482,4.5531,4.55,4.5611,4.5655,4.5746,4.578,4.5739,4.5919,4.5961,4.6114,4.6161,4.6198,4.6227,4.6175,4.638,4.6398,4.6416,4.6478,4.6503,4.6206,4.6206,4.6205,4.6205,0,4.547,4.5564,4.5645,4.5733,4.5792,4.5898,4.5915,4.5975,4.5967,4.5987,4.6115,4.6165,4.6253,4.629,4.6284,4.6443,4.6417,4.6379,4.6303,4.6448,4.6506,4.653,4.6215,4.6213,4.6211,4.621,0,0,4.5688,4.5777,4.5806,4.5845,4.5919,4.5991,4.6096,4.6182,4.6231,4.6296,4.6381,4.6506,4.647,4.6518,4.6517,4.6589,4.6733,4.654,4.6542,4.6571,4.6908,4.6934,4.6962,4.6717,4.6722,4.6725,4.6901,0,4.5863,4.6046,4.6051,4.6217,4.6303,4.6275,4.6366,4.642,4.6442,4.6517,4.6541,4.6628,4.6575,4.6604,4.6674,4.6701,4.68,4.6689,4.6794,4.6798,4.6774,4.6993,4.7021,4.7184,4.6925,4.6928,4.6931,0,4.6091,4.6162,4.6337,4.6397,4.6433,4.6514,4.6593,4.6667,4.6728,4.6739,4.6794,4.6782,4.6887,4.6812,4.6956,4.688,4.6924,4.6944,4.695,4.6956,4.687,4.7001,4.7237,4.726,4.6968,4.6965,4.6962,0,4.6228,4.6368,4.649,4.6525,4.6599,4.6656,4.669,4.6746,4.6797,4.6867,4.69,4.6982,4.7025,4.7088,4.7098,4.7043,4.7242,4.7168,4.7251,4.7251,4.7291,4.7287,4.7533,4.7327,4.7326,4.7326,4.7325,0,4.642,4.6527,4.6552,4.6627,4.6746,4.6752,4.6869,4.6899,4.6949,4.7028,4.701,4.7085,4.7096,4.7173,4.7182,4.7298,4.7319,4.7329,4.7329,4.7328,4.7327,4.7354,4.7341,4.7332,4.7331,4.7329,4.7328,0,4.6591,4.6613,4.6744,4.6804,4.6821,4.6906,4.6956,4.7027,4.7048,4.7148,4.7172,4.7205,4.7294,4.7312,4.7418,4.7424,4.7562,4.7553,4.7541,4.7538,4.762,4.761,4.7888,4.7923,4.7697,4.77,4.7701,0,4.671,4.6792,4.6861,4.6913,4.6949,4.7033,4.7086,4.7095,4.715,4.7226,4.7288,4.7376,4.7446,4.7591,4.7623,4.7704,4.7694,4.7786,4.7706,4.7702,4.7691,4.7684,4.7691,4.78,4.7802,4.7804,4.7806,0,4.6918,4.6925,4.7001,4.7082,4.7145,4.7209,4.727,4.7313,4.7331,4.7394,4.7486,4.754,4.7649,4.7736,4.7817,4.785,4.783,4.7832,4.7855,4.7852,4.784,4.7844,4.7578,4.7824,4.7822,4.7821,4.782,4.7819,4.7064,4.7135,4.7194,4.728,4.7327,4.7384,4.7453,4.7483,4.7559,4.7648,4.765,4.7749,4.7808,4.7915,4.7954,4.8031,4.8002,4.8036,4.8044,4.8051,4.8057,4.7832,4.8046,4.8046,4.8045,4.8045,4.8045,0,4.7268,4.7305,4.7384,4.7469,4.7536,4.7515,4.7581,4.7638,4.7725,4.7782,4.7852,4.7957,4.8041,4.8081,4.8164,4.8218,4.8211,4.8239,4.8233,4.824,4.808,4.805,4.8243,4.8243,4.8243,4.8243,4.8243,4.8243,4.7381,4.7498,4.7513,4.7653,4.7689,4.7786,4.7826,4.7878,4.7923,4.804,4.811,4.8136,4.8186,4.8272,4.8348,4.8358,4.8387,4.8419,4.8424,4.8272,4.8252,4.8233,4.8204,4.8427,4.8427,4.8577,4.8579,4.858]},{"header":{"parameterUnit":"m.s-1","parameterCategory":1,"la1":30.2991,"la2":30.254,"lo1":-89.0895,"lo2":-89.0444,"dy":0.0017,"dx":0.0017,"nx":28,"ny":28,"refTime":"2024-07-14T21:00:00:Z","depth":0,"parameterNumber":3,"parameterNumberName":"V-component_of_WINDS"},"data":[0,0,0,0,0,0,0,0,0,0,0,0,0,0,0,0,0,0,0,0,0,0,0,0,0,0,0,0,0,0,0,0,0,0,0,0,0,0,0,0,0,0,0,0,0,0,0,0,0,0,0,0,0,0,0,0,0,0,2.787,2.7871,0,2.7896,2.7897,2.7897,2.7856,2.7854,2.7853,2.7852,2.7878,2.788,2.7882,0,0,0,0,0,0,0,0,0,0,0,0,0,2.7783,2.7785,2.787,2.7871,2.7871,2.7896,2.7897,2.7897,2.7856,2.7854,2.7853,2.7851,2.7878,2.788,2.7883,0,0,0,0,0,0,0,0,0,0,0,0,0,2.7816,2.7785,2.787,2.7853,2.7852,2.7896,2.7897,2.7897,2.7856,2.7854,2.7852,2.785,2.7877,2.788,2.7883,2.7945,0,0,2.7892,2.7894,0,0,0,0,0,0,0,0,2.7814,2.7819,2.7856,2.7855,2.7853,2.7871,2.7876,2.7913,2.7857,2.7855,2.7852,2.7849,2.7878,2.788,2.789,2.7946,2.7947,2.7893,2.7894,2.7896,2.7897,0,0,0,0,0,0,0,2.7812,2.7818,2.7881,2.7856,2.7855,2.7844,2.7846,2.7883,2.7878,2.7855,2.7852,2.7856,2.7877,2.7887,2.789,2.7947,2.7892,2.7895,2.7897,2.7898,2.8052,2.8054,0,0,0,0,0,0,2.7812,2.7816,2.788,2.7881,2.7828,2.7847,2.785,2.7867,2.7877,2.7877,2.7857,2.7854,2.7883,2.7887,2.7891,2.7962,2.7896,2.7899,2.79,2.8049,2.8052,2.8055,0,0,0,0,0,0,2.781,2.7818,2.7879,2.7848,2.7855,2.7851,2.7871,2.7869,2.7879,2.7879,2.7878,2.7869,2.7882,2.7887,2.7931,2.7962,2.79,2.7903,2.8047,2.805,2.8053,2.8105,0,0,0,0,0,0,2.7808,2.7818,2.7842,2.7849,2.7857,2.7919,2.7873,2.7871,2.7885,2.788,2.789,2.789,2.788,2.7927,2.7934,2.7965,2.7905,2.8044,2.8048,2.8052,2.81,2.8109,2.8117,0,0,0,0,0,2.7805,2.7856,2.7843,2.7851,2.7887,2.7921,2.7925,2.7913,2.7888,2.7911,2.791,2.7889,2.7958,2.7931,2.7939,2.7972,2.8042,2.8047,2.8052,2.8096,2.8107,2.8117,0,0,0,0,0,0,2.7853,2.7856,2.7842,2.7897,2.7909,2.7914,2.7943,2.7926,2.7945,2.794,2.7924,2.7927,2.7974,2.7977,2.7948,2.8031,2.7995,2.8002,2.8026,2.8037,2.8045,2.8043,2.7908,0,0,0,0,0,2.787,2.7897,2.7899,2.7947,2.7953,2.7947,2.7962,2.7951,2.7963,2.7967,2.797,2.7982,2.8006,2.8022,2.8044,2.8101,2.8101,2.8127,2.8135,2.8142,2.8148,2.8176,2.8187,2.8071,2.8071,2.8071,0,0,2.7905,2.791,2.7929,2.7956,2.7964,2.7992,2.7952,2.7984,2.8004,2.7972,2.8013,2.8016,2.8028,2.8078,2.81,2.8082,2.818,2.8149,2.8154,2.8156,2.8182,2.8193,2.8203,2.8075,2.8074,2.8073,0,0,2.7983,2.7991,2.803,2.8038,2.805,2.8045,2.8055,2.8062,2.8062,2.8103,2.8079,2.8103,2.8145,2.8153,2.8163,2.8242,2.8222,2.825,2.8294,2.8321,2.833,2.8338,2.8364,2.8374,2.8256,2.8256,2.8256,0,2.8025,2.8066,2.8052,2.8085,2.8097,2.8069,2.8108,2.8117,2.8136,2.8144,2.8124,2.8175,2.8181,2.8231,2.825,2.826,2.8269,2.8248,2.833,2.8338,2.8345,2.8369,2.838,2.8259,2.8259,2.8258,2.8258,0,2.8116,2.8145,2.8175,2.8193,2.8208,2.8244,2.8235,2.8252,2.824,2.8237,2.8278,2.8284,2.8306,2.8318,2.8307,2.8366,2.8354,2.8333,2.8297,2.8359,2.8382,2.8391,2.8263,2.8262,2.8261,2.826,0,0,2.8226,2.8233,2.8245,2.8251,2.8261,2.8283,2.8317,2.8337,2.8351,2.8365,2.8392,2.8427,2.8406,2.8417,2.8407,2.8431,2.849,2.8406,2.8406,2.842,2.8553,2.8568,2.8579,2.8478,2.848,2.8481,2.8551,0,2.8301,2.8359,2.8346,2.8403,2.8428,2.8401,2.843,2.8439,2.8437,2.8457,2.8455,2.8479,2.8451,2.8457,2.848,2.8478,2.8516,2.8473,2.8501,2.8502,2.8497,2.8591,2.8608,2.8674,2.856,2.8562,2.8563,0,2.8397,2.8413,2.8472,2.8475,2.8485,2.8512,2.8528,2.8549,2.8558,2.8554,2.8566,2.855,2.8582,2.8547,2.859,2.8561,2.8571,2.8572,2.8574,2.8575,2.8535,2.8593,2.8695,2.8704,2.8577,2.8576,2.8575,0,2.8468,2.8504,2.8543,2.855,2.8556,2.8574,2.8578,2.8585,2.8597,2.8611,2.8619,2.8638,2.8647,2.8662,2.8651,2.8626,2.8695,2.8659,2.8692,2.8692,2.8706,2.8705,2.8809,2.8716,2.8716,2.8716,2.8716,0,2.8553,2.859,2.8575,2.8599,2.8638,2.8623,2.8662,2.8662,2.8668,2.8691,2.8669,2.8691,2.8676,2.8696,2.8688,2.8724,2.8729,2.8726,2.8723,2.8727,2.8727,2.8733,2.8727,2.8718,2.8718,2.8717,2.8717,0,2.8639,2.8631,2.8671,2.8672,2.8673,2.8702,2.8703,2.8725,2.872,2.8749,2.8755,2.8748,2.8771,2.8761,2.8786,2.878,2.8825,2.8817,2.8822,2.8819,2.8851,2.8848,2.8961,2.8975,2.8875,2.8876,2.8876,0,2.8693,2.872,2.8723,2.8737,2.8741,2.8763,2.8775,2.8761,2.8774,2.8785,2.8805,2.8825,2.8841,2.8878,2.8875,2.8892,2.8883,2.8922,2.8886,2.8888,2.8881,2.8879,2.8881,2.8929,2.893,2.8931,2.8932,0,2.8788,2.8782,2.88,2.8816,2.8831,2.8843,2.8853,2.8865,2.8852,2.8867,2.8889,2.8901,2.8925,2.8945,2.896,2.8963,2.8945,2.8943,2.8951,2.8955,2.8955,2.8953,2.8839,2.894,2.894,2.8939,2.8938,2.8938,2.8858,2.888,2.8885,2.8905,2.8911,2.8921,2.894,2.8938,2.8956,2.8973,2.8964,2.8989,2.8995,2.9014,2.9019,2.9038,2.9023,2.9035,2.9038,2.904,2.9044,2.8954,2.9041,2.9041,2.904,2.904,2.904,0,2.8951,2.8952,2.8971,2.8985,2.9,2.8982,2.8991,2.9005,2.9028,2.9035,2.905,2.9074,2.9093,2.9091,2.9108,2.9123,2.9115,2.9128,2.9126,2.9126,2.9057,2.9048,2.9134,2.9134,2.9134,2.9134,2.9134,2.9134,2.9001,2.9036,2.903,2.9067,2.9068,2.9092,2.9099,2.9107,2.9112,2.914,2.9155,2.9154,2.9156,2.9173,2.9189,2.9188,2.9194,2.921,2.9205,2.9141,2.9131,2.9122,2.9113,2.9212,2.9212,2.9272,2.9273,2.9273]}]]